| time (UTC) | temp F | wind direction | speed MPH | gust MPH | rain 1hr in | rain 24hr in | rain mn in | humidity % | barometer mb |
| 20260504012015 | 75 | 93 | 0.0 | 5.0 | 0.00 | 0.00 | 0.00 | 44 | 1011.1 |
| 20260504011522 | 75 | 51 | 1.0 | 5.0 | 0.00 | 0.00 | 0.00 | 43 | 1011.1 |
| 20260504011008 | 76 | 9 | 2.0 | 6.0 | 0.00 | 0.00 | 0.00 | 43 | 1011.2 |
| 20260504010508 | 76 | 265 | 0.0 | 6.0 | 0.00 | 0.00 | 0.00 | 43 | 1011.3 |
| 20260504010023 | 76 | 178 | 0.0 | 4.0 | 0.00 | 0.00 | 0.00 | 44 | 1011.3 |
| 20260504005507 | 76 | 44 | 1.0 | 10.0 | 0.00 | 0.00 | 0.00 | 44 | 1011.4 |
| 20260504005009 | 76 | 38 | 1.0 | 10.0 | 0.00 | 0.00 | 0.00 | 44 | 1011.4 |
| 20260504004522 | 77 | 178 | 1.0 | 6.0 | 0.00 | 0.00 | 0.00 | 44 | 1011.4 |
| 20260504004011 | 77 | 51 | 1.0 | 6.0 | 0.00 | 0.00 | 0.00 | 45 | 1011.4 |
| 20260504003512 | 78 | 93 | 2.0 | 6.0 | 0.00 | 0.00 | 0.00 | 46 | 1011.4 |
| 20260504003020 | 78 | 247 | 1.0 | 12.0 | 0.00 | 0.00 | 0.00 | 44 | 1011.4 |
| 20260504002506 | 78 | 33 | 4.0 | 12.0 | 0.00 | 0.00 | 0.00 | 45 | 1011.4 |
| 20260504002010 | 78 | 15 | 1.0 | 8.0 | 0.00 | 0.00 | 0.00 | 45 | 1011.4 |
| 20260504001522 | 78 | 247 | 2.0 | 9.0 | 0.00 | 0.00 | 0.00 | 44 | 1011.5 |
| 20260504001008 | 79 | 40 | 3.0 | 9.0 | 0.00 | 0.00 | 0.00 | 43 | 1011.5 |
| 20260504000508 | 79 | 270 | 1.0 | 7.0 | 0.00 | 0.00 | 0.00 | 44 | 1011.6 |
| 20260504000025 | 79 | 24 | 1.0 | 6.0 | 0.00 | 0.00 | 0.00 | 45 | 1011.6 |
| 20260503235508 | 79 | 9 | 1.0 | 4.0 | 0.00 | 0.00 | 0.00 | 44 | 1011.7 |
| 20260503235007 | 79 | 298 | 1.0 | 7.0 | 0.00 | 0.00 | 0.00 | 43 | 1011.7 |
| 20260503234537 | 80 | 34 | 3.0 | 7.0 | 0.00 | 0.00 | 0.00 | 41 | 1011.7 |
| 20260503234011 | 80 | 325 | 2.0 | 5.0 | 0.00 | 0.00 | 0.00 | 44 | 1011.7 |
| 20260503233510 | 80 | 255 | 1.0 | 4.0 | 0.00 | 0.00 | 0.00 | 44 | 1011.7 |
| 20260503233027 | 80 | 51 | 1.0 | 6.0 | 0.00 | 0.00 | 0.00 | 42 | 1011.8 |
| 20260503232509 | 80 | 26 | 3.0 | 6.0 | 0.00 | 0.00 | 0.00 | 43 | 1011.9 |
| 20260503232010 | 80 | 334 | 1.0 | 10.0 | 0.00 | 0.00 | 0.00 | 44 | 1011.9 |
| 20260503231522 | 80 | 309 | 3.0 | 10.0 | 0.00 | 0.00 | 0.00 | 43 | 1012.0 |
| 20260503231013 | 80 | 338 | 3.0 | 9.0 | 0.00 | 0.00 | 0.00 | 41 | 1012.0 |
| 20260503230512 | 80 | 56 | 1.0 | 6.0 | 0.00 | 0.00 | 0.00 | 42 | 1012.1 |
| 20260503230005 | 80 | 16 | 3.0 | 6.0 | 0.00 | 0.00 | 0.00 | 42 | 1012.2 |
| 20260503225503 | 80 | 80 | 2.0 | 5.0 | 0.00 | 0.00 | 0.00 | 41 | 1012.3 |
| 20260503225004 | 80 | 47 | 1.0 | 7.0 | 0.00 | 0.00 | 0.00 | 43 | 1012.3 |
| 20260503224503 | 80 | 266 | 3.0 | 7.0 | 0.00 | 0.00 | 0.00 | 43 | 1012.4 |
| 20260503224002 | 80 | 28 | 1.0 | 9.0 | 0.00 | 0.00 | 0.00 | 42 | 1012.5 |
| 20260503223502 | 80 | 287 | 1.0 | 9.0 | 0.00 | 0.00 | 0.00 | 43 | 1012.5 |
| 20260503223004 | 80 | 25 | 2.0 | 5.0 | 0.00 | 0.00 | 0.00 | 45 | 1012.5 |
| 20260503222503 | 80 | 241 | 2.0 | 8.0 | 0.00 | 0.00 | 0.00 | 45 | 1012.7 |
| 20260503222004 | 80 | 215 | 3.0 | 8.0 | 0.00 | 0.00 | 0.00 | 44 | 1012.8 |
| 20260503221504 | 80 | 39 | 1.0 | 8.0 | 0.00 | 0.00 | 0.00 | 45 | 1012.9 |
| 20260503221005 | 79 | 68 | 2.0 | 12.0 | 0.00 | 0.00 | 0.00 | 48 | 1012.9 |
| 20260503220503 | 79 | 20 | 2.0 | 12.0 | 0.00 | 0.00 | 0.00 | 46 | 1012.9 |
| 20260503220010 | 80 | 9 | 3.0 | 6.0 | 0.00 | 0.00 | 0.00 | 45 | 1013.0 |
| 20260503215503 | 80 | 93 | 1.0 | 6.0 | 0.00 | 0.00 | 0.00 | 45 | 1013.1 |
| 20260503215002 | 80 | 9 | 1.0 | 8.0 | 0.00 | 0.00 | 0.00 | 51 | 1013.1 |
| 20260503214502 | 79 | 22 | 2.0 | 9.0 | 0.00 | 0.00 | 0.00 | 47 | 1013.2 |
| 20260503214003 | 79 | 38 | 3.0 | 9.0 | 0.00 | 0.00 | 0.00 | 46 | 1013.2 |
| 20260503213503 | 79 | 22 | 2.0 | 8.0 | 0.00 | 0.00 | 0.00 | 47 | 1013.4 |
| 20260503213008 | 78 | 309 | 1.0 | 6.0 | 0.00 | 0.00 | 0.00 | 48 | 1013.3 |
| 20260503212502 | 78 | 124 | 1.0 | 6.0 | 0.00 | 0.00 | 0.00 | 48 | 1013.3 |
| 20260503212002 | 78 | 83 | 2.0 | 13.0 | 0.00 | 0.00 | 0.00 | 49 | 1013.5 |
| 20260503211504 | 78 | 305 | 2.0 | 13.0 | 0.00 | 0.00 | 0.00 | 47 | 1013.5 |
| 20260503211003 | 78 | 42 | 2.0 | 9.0 | 0.00 | 0.00 | 0.00 | 50 | 1013.5 |
| 20260503210501 | 78 | 9 | 2.0 | 9.0 | 0.00 | 0.00 | 0.00 | 46 | 1013.5 |
| 20260503210003 | 78 | 57 | 2.0 | 11.0 | 0.00 | 0.00 | 0.00 | 47 | 1013.6 |
| 20260503205503 | 78 | 26 | 1.0 | 11.0 | 0.00 | 0.00 | 0.00 | 49 | 1013.6 |
| 20260503205003 | 77 | 20 | 2.0 | 15.0 | 0.00 | 0.00 | 0.00 | 47 | 1013.7 |
| 20260503204504 | 77 | 24 | 5.0 | 15.0 | 0.00 | 0.00 | 0.00 | 49 | 1013.7 |
| 20260503204003 | 78 | 18 | 1.0 | 7.0 | 0.00 | 0.00 | 0.00 | 47 | 1013.7 |
| 20260503203505 | 77 | 137 | 1.0 | 7.0 | 0.00 | 0.00 | 0.00 | 50 | 1013.8 |
| 20260503203003 | 77 | 57 | 1.0 | 7.0 | 0.00 | 0.00 | 0.00 | 45 | 1013.8 |
| 20260503202503 | 77 | 137 | 1.0 | 7.0 | 0.00 | 0.00 | 0.00 | 47 | 1013.8 |
| 20260503202002 | 76 | 26 | 2.0 | 6.0 | 0.00 | 0.00 | 0.00 | 49 | 1013.8 |
| 20260503201503 | 76 | 158 | 2.0 | 6.0 | 0.00 | 0.00 | 0.00 | 49 | 1014.0 |
| 20260503201006 | 76 | 16 | 2.0 | 6.0 | 0.00 | 0.00 | 0.00 | 54 | 1014.0 |
| 20260503200501 | 76 | 83 | 2.0 | 9.0 | 0.00 | 0.00 | 0.00 | 48 | 1014.0 |
| 20260503200005 | 76 | 53 | 2.0 | 9.0 | 0.00 | 0.00 | 0.00 | 49 | 1014.1 |
| 20260503195502 | 75 | 9 | 3.0 | 7.0 | 0.00 | 0.00 | 0.00 | 45 | 1014.3 |
| 20260503195001 | 75 | 178 | 1.0 | 11.0 | 0.00 | 0.00 | 0.00 | 48 | 1014.4 |
| 20260503194506 | 74 | 59 | 5.0 | 11.0 | 0.00 | 0.00 | 0.00 | 46 | 1014.4 |
| 20260503194002 | 74 | 80 | 1.0 | 7.0 | 0.00 | 0.00 | 0.00 | 50 | 1014.4 |
| 20260503193503 | 74 | 111 | 2.0 | 7.0 | 0.00 | 0.00 | 0.00 | 53 | 1014.5 |
| 20260503193003 | 74 | 93 | 1.0 | 7.0 | 0.00 | 0.00 | 0.00 | 49 | 1014.6 |
| 20260503192502 | 74 | 237 | 2.0 | 7.0 | 0.00 | 0.00 | 0.00 | 53 | 1014.6 |
| 20260503192005 | 74 | 72 | 3.0 | 6.0 | 0.00 | 0.00 | 0.00 | 54 | 1014.7 |
| 20260503191505 | 74 | 282 | 2.0 | 9.0 | 0.00 | 0.00 | 0.00 | 57 | 1014.7 |
| 20260503191007 | 73 | 193 | 2.0 | 10.0 | 0.00 | 0.00 | 0.00 | 55 | 1014.7 |
| 20260503190503 | 73 | 31 | 5.0 | 10.0 | 0.00 | 0.00 | 0.00 | 56 | 1014.7 |
| 20260503190002 | 73 | 85 | 3.0 | 7.0 | 0.00 | 0.00 | 0.00 | 52 | 1014.8 |
| 20260503185503 | 73 | 196 | 2.0 | 6.0 | 0.00 | 0.00 | 0.00 | 62 | 1014.8 |
| 20260503185003 | 72 | 178 | 1.0 | 10.0 | 0.00 | 0.00 | 0.00 | 59 | 1014.9 |
| 20260503184505 | 72 | 211 | 2.0 | 13.0 | 0.00 | 0.00 | 0.00 | 58 | 1015.0 |
| 20260503184003 | 72 | 55 | 6.0 | 13.0 | 0.00 | 0.00 | 0.00 | 59 | 1015.1 |
| 20260503183502 | 72 | 265 | 1.0 | 6.0 | 0.00 | 0.00 | 0.00 | 63 | 1015.1 |
| 20260503183002 | 71 | 232 | 1.0 | 6.0 | 0.00 | 0.00 | 0.00 | 62 | 1015.2 |
| 20260503182502 | 71 | 51 | 3.0 | 9.0 | 0.00 | 0.00 | 0.00 | 59 | 1015.3 |
| 20260503182002 | 71 | 30 | 2.0 | 9.0 | 0.00 | 0.00 | 0.00 | 61 | 1015.3 |
| 20260503181503 | 71 | 45 | 2.0 | 7.0 | 0.00 | 0.00 | 0.00 | 62 | 1015.3 |
| 20260503181003 | 71 | 43 | 2.0 | 8.0 | 0.00 | 0.00 | 0.00 | 60 | 1015.3 |
| 20260503180503 | 71 | 341 | 2.0 | 8.0 | 0.00 | 0.00 | 0.00 | 62 | 1015.3 |
| 20260503180005 | 70 | 9 | 2.0 | 8.0 | 0.00 | 0.00 | 0.00 | 63 | 1015.3 |
| 20260503175502 | 70 | 26 | 3.0 | 7.0 | 0.00 | 0.00 | 0.00 | 61 | 1015.4 |
| 20260503175003 | 70 | 291 | 3.0 | 7.0 | 0.00 | 0.00 | 0.00 | 59 | 1015.6 |
| 20260503174502 | 70 | 178 | 2.0 | 5.0 | 0.00 | 0.00 | 0.00 | 61 | 1015.5 |
| 20260503174003 | 70 | 111 | 2.0 | 6.0 | 0.00 | 0.00 | 0.00 | 60 | 1015.5 |
| 20260503173503 | 70 | 38 | 2.0 | 6.0 | 0.00 | 0.00 | 0.00 | 61 | 1015.5 |
| 20260503173003 | 69 | 232 | 1.0 | 4.0 | 0.00 | 0.00 | 0.00 | 64 | 1015.5 |
| 20260503172502 | 69 | 68 | 0.0 | 5.0 | 0.00 | 0.00 | 0.00 | 63 | 1015.5 |
| 20260503172002 | 68 | 41 | 3.0 | 5.0 | 0.00 | 0.00 | 0.00 | 61 | 1015.5 |
| 20260503171502 | 68 | 250 | 1.0 | 5.0 | 0.00 | 0.00 | 0.00 | 65 | 1015.5 |
| 20260503171003 | 67 | 38 | 2.0 | 5.0 | 0.00 | 0.00 | 0.00 | 62 | 1015.6 |
| 20260503170505 | 67 | 93 | 1.0 | 6.0 | 0.00 | 0.00 | 0.00 | 64 | 1015.5 |
| 20260503151009 | 51 | 9 | 0.0 | 1.0 | 0.00 | 0.00 | 0.00 | 96 | 1016.0 |
| 20260503150509 | 50 | 265 | 0.0 | 1.0 | 0.00 | 0.00 | 0.00 | 96 | 1016.0 |
| 20260503131013 | 46 | 51 | 0.0 | 1.0 | 0.00 | 0.00 | 0.00 | 93 | 1015.5 |
| 20260503130509 | 47 | 9 | 0.0 | 1.0 | 0.00 | 0.00 | 0.00 | 93 | 1015.5 |
| 20260503110512 | 48 | 51 | 0.0 | 1.0 | 0.00 | 0.00 | 0.00 | 92 | 1015.9 |
| 20260503090509 | 50 | 68 | 0.0 | 1.0 | 0.00 | 0.00 | 0.00 | 90 | 1015.9 |
| 20260503081531 | 51 | 9 | 0.0 | 1.0 | 0.00 | 0.00 | 0.00 | 89 | 1016.1 |
| 20260503081009 | 51 | 9 | 0.0 | 1.0 | 0.00 | 0.00 | 0.00 | 88 | 1016.1 |
| 20260503080511 | 51 | 309 | 0.0 | 1.0 | 0.00 | 0.00 | 0.00 | 88 | 1016.1 |
| 20260503072507 | 52 | 292 | 0.0 | 1.0 | 0.00 | 0.00 | 0.00 | 87 | 1016.0 |
| 20260503072009 | 52 | 325 | 0.0 | 1.0 | 0.00 | 0.00 | 0.00 | 87 | 1016.0 |
| 20260503071527 | 52 | 309 | 0.0 | 1.0 | 0.00 | 0.00 | 0.00 | 86 | 1016.0 |
| 20260503071009 | 52 | 325 | 0.0 | 1.0 | 0.00 | 0.00 | 0.00 | 86 | 1016.0 |
| 20260503070509 | 52 | 9 | 0.0 | 1.0 | 0.00 | 0.00 | 0.00 | 85 | 1016.0 |
| 20260503055010 | 55 | 61 | 0.0 | 1.0 | 0.00 | 0.00 | 0.00 | 79 | 1015.8 |
| 20260503054528 | 56 | 51 | 0.0 | 1.0 | 0.00 | 0.00 | 0.00 | 79 | 1015.8 |
| 20260503054009 | 56 | 325 | 0.0 | 1.0 | 0.00 | 0.00 | 0.00 | 78 | 1015.7 |
| 20260503053508 | 56 | 309 | 0.0 | 1.0 | 0.00 | 0.00 | 0.00 | 78 | 1015.7 |
| 20260503053029 | 56 | 309 | 0.0 | 1.0 | 0.00 | 0.00 | 0.00 | 77 | 1015.7 |
| 20260503052509 | 57 | 9 | 0.0 | 2.0 | 0.00 | 0.00 | 0.00 | 77 | 1015.8 |
| 20260503052013 | 57 | 309 | 0.0 | 2.0 | 0.00 | 0.00 | 0.00 | 77 | 1015.8 |
| 20260503051524 | 57 | 51 | 0.0 | 1.0 | 0.00 | 0.00 | 0.00 | 76 | 1015.7 |
| 20260503051009 | 58 | 9 | 0.0 | 1.0 | 0.00 | 0.00 | 0.00 | 75 | 1015.7 |
| 20260503050509 | 58 | 51 | 0.0 | 1.0 | 0.00 | 0.00 | 0.00 | 75 | 1015.6 |
| 20260503050035 | 58 | 9 | 0.0 | 1.0 | 0.00 | 0.00 | 0.00 | 74 | 1015.6 |
| 20260503045509 | 58 | 9 | 0.0 | 1.0 | 0.00 | 0.00 | 0.00 | 73 | 1015.6 |
| 20260503045016 | 59 | 319 | 0.0 | 1.0 | 0.00 | 0.00 | 0.00 | 72 | 1015.6 |
| 20260503044503 | 59 | 309 | 0.0 | 1.0 | 0.00 | 0.00 | 0.00 | 71 | 1015.5 |
| 20260503044002 | 60 | 93 | 0.0 | 1.0 | 0.00 | 0.00 | 0.00 | 69 | 1015.5 |
| 20260503043503 | 60 | 51 | 0.0 | 1.0 | 0.00 | 0.00 | 0.00 | 69 | 1015.4 |
| 20260503043002 | 60 | 51 | 0.0 | 1.0 | 0.00 | 0.00 | 0.00 | 69 | 1015.3 |
| 20260503042502 | 60 | 9 | 0.0 | 1.0 | 0.00 | 0.00 | 0.00 | 68 | 1015.3 |
| 20260503042001 | 60 | 9 | 0.0 | 1.0 | 0.00 | 0.00 | 0.00 | 68 | 1015.2 |
| 20260503041507 | 61 | 178 | 0.0 | 1.0 | 0.00 | 0.00 | 0.00 | 69 | 1015.2 |
| 20260503041003 | 62 | 93 | 0.0 | 1.0 | 0.00 | 0.00 | 0.00 | 67 | 1015.2 |
| 20260503040502 | 62 | 51 | 0.0 | 1.0 | 0.00 | 0.00 | 0.00 | 66 | 1015.2 |
| 20260503040005 | 63 | 120 | 0.0 | 1.0 | 0.00 | 0.00 | 0.00 | 65 | 1015.2 |
| 20260503035503 | 63 | 34 | 0.0 | 1.0 | 0.00 | 0.00 | 0.00 | 63 | 1015.0 |
| 20260503035004 | 64 | 9 | 0.0 | 2.0 | 0.00 | 0.00 | 0.00 | 61 | 1014.9 |
| 20260503034504 | 64 | 51 | 0.0 | 2.0 | 0.00 | 0.00 | 0.00 | 60 | 1014.9 |
| 20260503034005 | 64 | 265 | 0.0 | 2.0 | 0.00 | 0.00 | 0.00 | 59 | 1014.9 |
| 20260503033504 | 65 | 9 | 0.0 | 2.0 | 0.00 | 0.00 | 0.00 | 59 | 1014.8 |
| 20260503033004 | 65 | 51 | 0.0 | 2.0 | 0.00 | 0.00 | 0.00 | 59 | 1014.7 |
| 20260503032505 | 65 | 309 | 0.0 | 1.0 | 0.00 | 0.00 | 0.00 | 57 | 1014.6 |
| 20260503032003 | 66 | 265 | 0.0 | 1.0 | 0.00 | 0.00 | 0.00 | 57 | 1014.7 |
| 20260503031516 | 66 | 221 | 0.0 | 2.0 | 0.00 | 0.00 | 0.00 | 57 | 1014.6 |
| 20260503031005 | 66 | 51 | 0.0 | 2.0 | 0.00 | 0.00 | 0.00 | 56 | 1014.6 |
| 20260503030504 | 67 | 9 | 0.0 | 1.0 | 0.00 | 0.00 | 0.00 | 55 | 1014.4 |
| 20260503030003 | 67 | 9 | 0.0 | 1.0 | 0.00 | 0.00 | 0.00 | 54 | 1014.4 |
| 20260503025502 | 67 | 51 | 0.0 | 1.0 | 0.00 | 0.00 | 0.00 | 54 | 1014.4 |
| 20260503025002 | 67 | 248 | 0.0 | 2.0 | 0.00 | 0.00 | 0.00 | 53 | 1014.4 |
| 20260503024507 | 68 | 265 | 0.0 | 2.0 | 0.00 | 0.00 | 0.00 | 53 | 1014.4 |
| 20260503024003 | 68 | 221 | 0.0 | 2.0 | 0.00 | 0.00 | 0.00 | 53 | 1014.4 |
| 20260503023510 | 68 | 51 | 0.0 | 2.0 | 0.00 | 0.00 | 0.00 | 52 | 1014.4 |
| 20260503023004 | 68 | 9 | 0.0 | 2.0 | 0.00 | 0.00 | 0.00 | 51 | 1014.3 |
| 20260503022506 | 68 | 178 | 0.0 | 3.0 | 0.00 | 0.00 | 0.00 | 51 | 1014.3 |
| 20260503022003 | 69 | 265 | 0.0 | 4.0 | 0.00 | 0.00 | 0.00 | 51 | 1014.3 |
| 20260503021506 | 69 | 309 | 0.0 | 5.0 | 0.00 | 0.00 | 0.00 | 51 | 1014.3 |
| 20260503021003 | 69 | 76 | 2.0 | 5.0 | 0.00 | 0.00 | 0.00 | 50 | 1014.4 |
| 20260503020503 | 69 | 41 | 0.0 | 5.0 | 0.00 | 0.00 | 0.00 | 50 | 1014.3 |
| 20260503020004 | 69 | 30 | 1.0 | 4.0 | 0.00 | 0.00 | 0.00 | 49 | 1014.3 |
| 20260503015502 | 70 | 51 | 0.0 | 5.0 | 0.00 | 0.00 | 0.00 | 49 | 1014.4 |
| 20260503015002 | 70 | 9 | 0.0 | 8.0 | 0.00 | 0.00 | 0.00 | 49 | 1014.4 |
| 20260503014503 | 70 | 33 | 3.0 | 8.0 | 0.00 | 0.00 | 0.00 | 47 | 1014.5 |
| 20260503014002 | 70 | 312 | 1.0 | 7.0 | 0.00 | 0.00 | 0.00 | 47 | 1014.5 |
| 20260503013502 | 70 | 19 | 0.0 | 6.0 | 0.00 | 0.00 | 0.00 | 48 | 1014.5 |
| 20260503013009 | 70 | 334 | 1.0 | 6.0 | 0.00 | 0.00 | 0.00 | 49 | 1014.6 |
| 20260503012503 | 71 | 309 | 2.0 | 6.0 | 0.00 | 0.00 | 0.00 | 48 | 1014.6 |